W8EH Weather Reports


Display with metric or nautical units.
time (UTC)temp
F
wind
direction
speed
MPH
gust
MPH
rain 1hr
in
rain 24hr
in
rain mn
in
humidity
%
barometer
mb
20240620162130 87 283 6.0 8.0 0.00 0.00 0.00 64 1025.7
20240620161718 87 336 1.0 7.0 0.00 0.00 0.00 67 1025.7
20240620161630 86 352 4.0 7.0 0.00 0.00 0.00 65 1025.7
20240620161218 86 343 1.0 7.0 0.00 0.00 0.00 63 1025.8
20240620161130 86 343 1.0 7.0 0.00 0.00 0.00 63 1025.8
20240620160718 87 287 2.0 9.0 0.00 0.00 0.00 63 1025.8
20240620160630 87 262 3.0 9.0 0.00 0.00 0.00 62 1025.8
20240620160218 87 321 3.0 9.0 0.00 0.00 0.00 63 1025.8
20240620160130 87 28 5.0 9.0 0.00 0.00 0.00 62 1025.8
20240620155718 87 335 4.0 9.0 0.00 0.00 0.00 62 1025.8
20240620155630 87 3 5.0 8.0 0.00 0.00 0.00 63 1025.8
20240620155218 87 284 1.0 10.0 0.00 0.00 0.00 65 1025.7
20240620155130 86 343 3.0 10.0 0.00 0.00 0.00 65 1025.7
20240620154718 86 287 4.0 10.0 0.00 0.00 0.00 65 1025.7
20240620154630 86 238 2.0 10.0 0.00 0.00 0.00 65 1025.7
20240620154218 86 249 5.0 8.0 0.00 0.00 0.00 66 1025.7
20240620154130 86 250 0.0 9.0 0.00 0.00 0.00 66 1025.7
20240620153718 85 343 4.0 9.0 0.00 0.00 0.00 65 1025.8
20240620153630 85 312 5.0 9.0 0.00 0.00 0.00 64 1025.8
20240620153218 85 266 6.0 10.0 0.00 0.00 0.00 66 1025.7
20240620153130 85 332 5.0 10.0 0.00 0.00 0.00 65 1025.7
20240620152718 85 357 2.0 10.0 0.00 0.00 0.00 65 1025.7
20240620152630 85 330 2.0 10.0 0.00 0.00 0.00 65 1025.8
20240620152218 85 307 6.0 9.0 0.00 0.00 0.00 66 1025.7
20240620152130 85 207 3.0 9.0 0.00 0.00 0.00 66 1025.8
20240620151718 84 243 3.0 9.0 0.00 0.00 0.00 68 1025.8
20240620151630 85 311 3.0 9.0 0.00 0.00 0.00 67 1025.8
20240620151218 84 284 1.0 7.0 0.00 0.00 0.00 68 1025.8
20240620151130 84 338 3.0 7.0 0.00 0.00 0.00 68 1025.8
20240620150718 84 308 3.0 7.0 0.00 0.00 0.00 69 1025.8
20240620150630 84 339 4.0 7.0 0.00 0.00 0.00 69 1025.8
20240620150218 84 152 2.0 8.0 0.00 0.00 0.00 69 1025.8
20240620150130 84 240 2.0 8.0 0.00 0.00 0.00 69 1025.8
20240620145718 84 11 3.0 8.0 0.00 0.00 0.00 69 1025.7
20240620145630 84 335 5.0 8.0 0.00 0.00 0.00 69 1025.8
20240620145218 83 323 4.0 8.0 0.00 0.00 0.00 70 1025.7
20240620145130 83 285 3.0 8.0 0.00 0.00 0.00 70 1025.7
20240620144718 83 267 4.0 8.0 0.00 0.00 0.00 69 1025.7
20240620144630 83 246 2.0 8.0 0.00 0.00 0.00 70 1025.7
20240620144221 83 273 5.0 9.0 0.00 0.00 0.00 70 1025.6
20240620144130 83 281 2.0 9.0 0.00 0.00 0.00 70 1025.6
20240620143718 83 255 4.0 9.0 0.00 0.00 0.00 68 1025.6
20240620143630 83 280 4.0 9.0 0.00 0.00 0.00 69 1025.6
20240620143218 83 316 4.0 8.0 0.00 0.00 0.00 68 1025.6
20240620143130 83 240 3.0 8.0 0.00 0.00 0.00 69 1025.5
20240620142718 83 221 4.0 8.0 0.00 0.00 0.00 72 1025.5
20240620142630 83 224 4.0 8.0 0.00 0.00 0.00 72 1025.5
20240620142218 83 328 3.0 8.0 0.00 0.00 0.00 71 1025.5
20240620142130 83 285 3.0 8.0 0.00 0.00 0.00 71 1025.5
20240620141718 83 238 2.0 8.0 0.00 0.00 0.00 72 1025.4
20240620141630 82 274 4.0 8.0 0.00 0.00 0.00 72 1025.4
20240620141218 82 304 3.0 7.0 0.00 0.00 0.00 74 1025.4
20240620141130 82 231 2.0 7.0 0.00 0.00 0.00 73 1025.4
20240620140718 82 285 3.0 7.0 0.00 0.00 0.00 73 1025.4
20240620140630 82 312 3.0 7.0 0.00 0.00 0.00 74 1025.4
20240620140218 82 322 4.0 6.0 0.00 0.00 0.00 75 1025.4
20240620140130 82 357 0.0 6.0 0.00 0.00 0.00 75 1025.4
20240620135800 81 338 2.0 6.0 0.00 0.00 0.00 75 1025.4
20240620135718 81 338 2.0 6.0 0.00 0.00 0.00 75 1025.4
20240620135630 81 262 1.0 6.0 0.00 0.00 0.00 75 1025.4
20240620135218 81 288 1.0 7.0 0.00 0.00 0.00 76 1025.4
20240620135130 81 291 1.0 7.0 0.00 0.00 0.00 76 1025.4
20240620134718 81 287 3.0 7.0 0.00 0.00 0.00 77 1025.4
20240620134630 81 326 1.0 7.0 0.00 0.00 0.00 77 1025.4
20240620134218 81 278 2.0 5.0 0.00 0.00 0.00 78 1025.4
20240620134130 80 255 2.0 5.0 0.00 0.00 0.00 78 1025.4
20240620133718 80 304 1.0 5.0 0.00 0.00 0.00 78 1025.4
20240620133630 80 253 1.0 5.0 0.00 0.00 0.00 78 1025.4
20240620133218 80 267 1.0 5.0 0.00 0.00 0.00 78 1025.4
20240620133130 80 322 3.0 5.0 0.00 0.00 0.00 78 1025.5
20240620132718 80 218 1.0 7.0 0.00 0.00 0.00 79 1025.4
20240620132629 80 314 2.0 7.0 0.00 0.00 0.00 80 1025.4
20240620132219 80 343 2.0 7.0 0.00 0.00 0.00 80 1025.4
20240620132130 80 7 1.0 7.0 0.00 0.00 0.00 80 1025.4
20240620131718 80 343 2.0 3.0 0.00 0.00 0.00 81 1025.5
20240620131630 80 325 1.0 3.0 0.00 0.00 0.00 81 1025.5
20240620131218 79 332 2.0 4.0 0.00 0.00 0.00 81 1025.5
20240620131130 79 345 1.0 5.0 0.00 0.00 0.00 81 1025.5
20240620130718 79 238 1.0 5.0 0.00 0.00 0.00 81 1025.4
20240620130630 79 238 2.0 5.0 0.00 0.00 0.00 80 1025.5
20240620130218 79 270 3.0 5.0 0.00 0.00 0.00 81 1025.4
20240620130130 79 229 3.0 5.0 0.00 0.00 0.00 81 1025.4
20240620125718 79 250 1.0 7.0 0.00 0.00 0.00 81 1025.4
20240620125630 79 287 2.0 7.0 0.00 0.00 0.00 81 1025.4
20240620125218 79 228 4.0 7.0 0.00 0.00 0.00 81 1025.4
20240620125130 79 302 4.0 7.0 0.00 0.00 0.00 81 1025.4
20240620124750 79 222 3.0 7.0 0.00 0.00 0.00 82 1025.4
20240620124718 79 222 3.0 7.0 0.00 0.00 0.00 82 1025.4
20240620124630 79 257 2.0 7.0 0.00 0.00 0.00 82 1025.4
20240620124218 79 287 1.0 5.0 0.00 0.00 0.00 83 1025.4
20240620124130 79 266 1.0 6.0 0.00 0.00 0.00 83 1025.4
20240620123718 78 277 1.0 6.0 0.00 0.00 0.00 83 1025.5
20240620123630 78 255 2.0 6.0 0.00 0.00 0.00 83 1025.5
20240620123218 78 267 4.0 6.0 0.00 0.00 0.00 83 1025.4
20240620123130 78 224 3.0 6.0 0.00 0.00 0.00 83 1025.4
20240620122718 78 187 1.0 4.0 0.00 0.00 0.00 84 1025.4
20240620122630 78 228 1.0 4.0 0.00 0.00 0.00 85 1025.3
20240620122218 78 243 1.0 3.0 0.00 0.00 0.00 86 1025.4
20240620122130 78 291 1.0 3.0 0.00 0.00 0.00 86 1025.3
20240620121718 78 236 1.0 2.0 0.00 0.00 0.00 86 1025.4
20240620121630 78 111 0.0 0.0 0.00 0.00 0.00 86 1025.4
20240620121218 77 111 0.0 0.0 0.00 0.00 0.00 87 1025.4
20240620121130 77 111 0.0 0.0 0.00 0.00 0.00 87 1025.4
20240620120753 77 111 0.0 1.0 0.00 0.00 0.00 87 1025.4
20240620120718 77 111 0.0 1.0 0.00 0.00 0.00 87 1025.4
20240620120630 77 111 0.0 1.0 0.00 0.00 0.00 87 1025.4
20240620120218 77 111 0.0 1.0 0.00 0.00 0.00 87 1025.4
20240620120130 77 111 0.0 1.0 0.00 0.00 0.00 87 1025.4
20240620115718 77 262 0.0 1.0 0.00 0.00 0.00 87 1025.4
20240620115630 77 170 0.0 0.0 0.00 0.00 0.00 87 1025.4
20240620115218 77 170 0.0 1.0 0.00 0.00 0.00 87 1025.3
20240620115130 77 170 0.0 1.0 0.00 0.00 0.00 87 1025.3
20240620114718 77 170 0.0 1.0 0.00 0.00 0.00 87 1025.3
20240620114630 77 170 0.0 1.0 0.00 0.00 0.00 87 1025.3
20240620114218 77 158 0.0 1.0 0.00 0.00 0.00 87 1025.3
20240620114130 77 127 0.0 0.0 0.00 0.00 0.00 87 1025.3
20240620113718 77 127 0.0 0.0 0.00 0.00 0.00 87 1025.3
20240620113630 77 127 0.0 0.0 0.00 0.00 0.00 87 1025.2
20240620113218 77 127 0.0 0.0 0.00 0.00 0.00 87 1025.3
20240620113130 77 127 0.0 0.0 0.00 0.00 0.00 87 1025.3
20240620112718 77 127 0.0 0.0 0.00 0.00 0.00 87 1025.2
20240620112630 76 127 0.0 0.0 0.00 0.00 0.00 87 1025.2
20240620112218 76 127 0.0 0.0 0.00 0.00 0.00 87 1025.1
20240620112130 76 127 0.0 0.0 0.00 0.00 0.00 87 1025.1
20240620111718 76 127 0.0 0.0 0.00 0.00 0.00 87 1025.2
20240620111630 76 127 0.0 0.0 0.00 0.00 0.00 86 1025.2
20240620111218 76 127 0.0 0.0 0.00 0.00 0.00 86 1025.2
20240620111130 76 127 0.0 0.0 0.00 0.00 0.00 86 1025.1
20240620110718 76 127 0.0 0.0 0.00 0.00 0.00 86 1025.1
20240620110629 76 127 0.0 0.0 0.00 0.00 0.00 86 1025.0
20240620110219 76 127 0.0 0.0 0.00 0.00 0.00 86 1025.0
20240620110129 76 127 0.0 0.0 0.00 0.00 0.00 86 1025.0
20240620105719 76 127 0.0 0.0 0.00 0.00 0.00 86 1025.0
20240620105629 76 127 0.0 0.0 0.00 0.00 0.00 86 1025.0
20240620105417 76 127 0.0 0.0 0.00 0.00 0.00 86 1025.0
20240620105219 76 127 0.0 0.0 0.00 0.00 0.00 86 1025.0
20240620105129 76 127 0.0 0.0 0.00 0.00 0.00 86 1025.0
20240620104719 76 127 0.0 0.0 0.00 0.00 0.00 86 1025.0
20240620104629 76 127 0.0 0.0 0.00 0.00 0.00 86 1025.0
20240620104219 76 127 0.0 0.0 0.00 0.00 0.00 86 1025.0
20240620104129 76 127 0.0 0.0 0.00 0.00 0.00 86 1024.9
20240620103719 76 127 0.0 0.0 0.00 0.00 0.00 86 1024.9
20240620103629 76 127 0.0 0.0 0.00 0.00 0.00 86 1024.9
20240620103219 77 127 0.0 0.0 0.00 0.00 0.00 86 1024.9
20240620103129 77 127 0.0 0.0 0.00 0.00 0.00 86 1024.9
20240620102719 77 127 0.0 2.0 0.00 0.00 0.00 86 1024.9
20240620102629 77 127 0.0 3.0 0.00 0.00 0.00 86 1024.9
20240620102219 77 127 0.0 3.0 0.00 0.00 0.00 86 1024.9
20240620102129 77 127 0.0 3.0 0.00 0.00 0.00 86 1024.9
20240620101719 77 124 2.0 3.0 0.00 0.00 0.00 85 1024.9
20240620101629 77 169 1.0 2.0 0.00 0.00 0.00 85 1024.9
20240620101219 77 148 1.0 2.0 0.00 0.00 0.00 85 1024.9
20240620101129 77 148 1.0 2.0 0.00 0.00 0.00 85 1024.9
20240620100719 77 148 1.0 2.0 0.00 0.00 0.00 85 1024.9
20240620100629 77 146 0.0 2.0 0.00 0.00 0.00 85 1024.9
20240620100219 77 103 1.0 2.0 0.00 0.00 0.00 85 1024.9
20240620100129 77 152 0.0 2.0 0.00 0.00 0.00 85 1024.9
20240620095754 77 155 2.0 2.0 0.00 0.00 0.00 85 1024.9
20240620095719 77 155 2.0 2.0 0.00 0.00 0.00 85 1024.9
20240620095629 77 162 1.0 2.0 0.00 0.00 0.00 85 1024.8
20240620095219 77 138 1.0 2.0 0.00 0.00 0.00 85 1024.8
20240620095129 77 124 1.0 2.0 0.00 0.00 0.00 85 1024.8
20240620094719 77 117 0.0 1.0 0.00 0.00 0.00 85 1024.8
20240620094629 77 127 1.0 1.0 0.00 0.00 0.00 85 1024.8
20240620094219 77 131 0.0 1.0 0.00 0.00 0.00 84 1024.7
20240620094129 77 156 1.0 1.0 0.00 0.00 0.00 84 1024.7
20240620093719 77 66 0.0 2.0 0.00 0.00 0.00 84 1024.7
20240620093629 77 66 0.0 2.0 0.00 0.00 0.00 84 1024.7
20240620093219 77 146 1.0 2.0 0.00 0.00 0.00 84 1024.6
20240620093129 77 156 1.0 2.0 0.00 0.00 0.00 84 1024.6
20240620092802 77 177 0.0 2.0 0.00 0.00 0.00 84 1024.6
20240620092719 77 177 0.0 2.0 0.00 0.00 0.00 84 1024.6
20240620092629 77 156 0.0 2.0 0.00 0.00 0.00 84 1024.6
20240620092219 77 135 0.0 2.0 0.00 0.00 0.00 84 1024.6
20240620092129 77 150 0.0 2.0 0.00 0.00 0.00 84 1024.6
20240620091816 77 167 0.0 2.0 0.00 0.00 0.00 84 1024.6
20240620091719 77 167 0.0 2.0 0.00 0.00 0.00 84 1024.6
20240620091629 77 167 0.0 2.0 0.00 0.00 0.00 84 1024.6
20240620091252 77 110 0.0 2.0 0.00 0.00 0.00 84 1024.6
20240620091219 77 110 0.0 2.0 0.00 0.00 0.00 84 1024.6
20240620091129 77 110 0.0 2.0 0.00 0.00 0.00 84 1024.6
20240620090719 77 110 0.0 2.0 0.00 0.00 0.00 84 1024.6
20240620090629 77 136 1.0 2.0 0.00 0.00 0.00 84 1024.6
20240620090219 77 122 1.0 2.0 0.00 0.00 0.00 84 1024.6
20240620090129 77 86 0.0 2.0 0.00 0.00 0.00 84 1024.6
20240620085719 77 153 0.0 3.0 0.00 0.00 0.00 84 1024.5
20240620085629 77 100 0.0 4.0 0.00 0.00 0.00 84 1024.5
20240620085254 77 149 2.0 4.0 0.00 0.00 0.00 84 1024.6
20240620085219 77 149 2.0 4.0 0.00 0.00 0.00 84 1024.6
20240620085131 77 136 1.0 4.0 0.00 0.00 0.00 84 1024.6
20240620084758 77 142 2.0 4.0 0.00 0.00 0.00 84 1024.6
20240620084719 77 142 2.0 4.0 0.00 0.00 0.00 84 1024.6
20240620084629 77 163 2.0 3.0 0.00 0.00 0.00 84 1024.6
20240620084219 77 145 2.0 3.0 0.00 0.00 0.00 84 1024.5
20240620084129 77 142 1.0 2.0 0.00 0.00 0.00 84 1024.5
20240620083719 77 159 1.0 3.0 0.00 0.00 0.00 83 1024.6
20240620083629 77 162 1.0 3.0 0.00 0.00 0.00 83 1024.6
20240620083219 77 127 1.0 3.0 0.00 0.00 0.00 83 1024.6
20240620083129 78 153 2.0 3.0 0.00 0.00 0.00 83 1024.6
20240620082719 78 148 2.0 3.0 0.00 0.00 0.00 83 1024.5
20240620082629 78 169 2.0 3.0 0.00 0.00 0.00 83 1024.5
20240620082219 78 152 3.0 3.0 0.00 0.00 0.00 83 1024.5
20240620082129 78 158 2.0 3.0 0.00 0.00 0.00 83 1024.5
20240620081719 78 156 2.0 3.0 0.00 0.00 0.00 83 1024.6
20240620081629 78 184 2.0 3.0 0.00 0.00 0.00 83 1024.6
20240620081219 78 142 2.0 3.0 0.00 0.00 0.00 83 1024.5
20240620081130 78 158 2.0 2.0 0.00 0.00 0.00 83 1024.5
20240620080718 78 165 2.0 2.0 0.00 0.00 0.00 83 1024.5
20240620080629 78 125 2.0 2.0 0.00 0.00 0.00 83 1024.6
20240620080219 78 125 1.0 2.0 0.00 0.00 0.00 83 1024.5
20240620080129 78 165 1.0 2.0 0.00 0.00 0.00 83 1024.5
20240620075719 78 135 1.0 2.0 0.00 0.00 0.00 82 1024.5
20240620075629 78 138 1.0 2.0 0.00 0.00 0.00 82 1024.5
20240620075219 78 136 2.0 2.0 0.00 0.00 0.00 82 1024.4
20240620075129 78 148 1.0 2.0 0.00 0.00 0.00 82 1024.4
20240620074719 78 141 1.0 3.0 0.00 0.00 0.00 82 1024.4
20240620074629 78 149 1.0 3.0 0.00 0.00 0.00 82 1024.4
20240620074219 78 163 2.0 3.0 0.00 0.00 0.00 82 1024.4
20240620074129 78 166 2.0 3.0 0.00 0.00 0.00 82 1024.3
20240620073806 78 150 3.0 3.0 0.00 0.00 0.00 82 1024.3
20240620073719 78 150 3.0 3.0 0.00 0.00 0.00 82 1024.3
20240620073629 78 150 2.0 2.0 0.00 0.00 0.00 82 1024.3
20240620073219 78 110 1.0 2.0 0.00 0.00 0.00 82 1024.4
20240620073129 78 132 1.0 3.0 0.00 0.00 0.00 82 1024.3
20240620072719 78 170 1.0 3.0 0.00 0.00 0.00 82 1024.4
20240620072629 78 113 2.0 3.0 0.00 0.00 0.00 82 1024.4
20240620072219 78 120 2.0 3.0 0.00 0.00 0.00 82 1024.3
20240620072129 78 128 1.0 3.0 0.00 0.00 0.00 82 1024.3
20240620071719 78 148 2.0 3.0 0.00 0.00 0.00 82 1024.3
20240620071629 78 174 1.0 3.0 0.00 0.00 0.00 81 1024.3
20240620071219 78 184 2.0 3.0 0.00 0.00 0.00 81 1024.4
20240620071129 78 103 1.0 3.0 0.00 0.00 0.00 81 1024.4
20240620070719 78 70 1.0 4.0 0.00 0.00 0.00 81 1024.4
20240620070629 78 139 2.0 4.0 0.00 0.00 0.00 81 1024.4
20240620070219 78 153 2.0 4.0 0.00 0.00 0.00 81 1024.4
20240620070129 78 179 2.0 4.0 0.00 0.00 0.00 81 1024.4
20240620065719 78 158 2.0 4.0 0.00 0.00 0.00 81 1024.3
20240620065629 78 159 2.0 4.0 0.00 0.00 0.00 81 1024.3
20240620065219 78 129 1.0 4.0 0.00 0.00 0.00 81 1024.4
20240620065129 79 139 2.0 4.0 0.00 0.00 0.00 81 1024.3
20240620064719 79 111 0.0 4.0 0.00 0.00 0.00 81 1024.4
20240620064629 79 111 1.0 4.0 0.00 0.00 0.00 81 1024.4
20240620064219 79 128 2.0 4.0 0.00 0.00 0.00 81 1024.3
20240620064129 79 167 3.0 4.0 0.00 0.00 0.00 81 1024.3
20240620063719 79 141 3.0 4.0 0.00 0.00 0.00 80 1024.4
20240620063629 79 187 2.0 5.0 0.00 0.00 0.00 80 1024.4
20240620063219 79 142 3.0 5.0 0.00 0.00 0.00 80 1024.4
20240620063129 79 156 3.0 5.0 0.00 0.00 0.00 80 1024.4
20240620062719 79 152 3.0 5.0 0.00 0.00 0.00 80 1024.4
20240620062629 79 162 3.0 5.0 0.00 0.00 0.00 80 1024.4
20240620062219 79 158 2.0 5.0 0.00 0.00 0.00 80 1024.4
20240620062129 79 163 2.0 5.0 0.00 0.00 0.00 80 1024.4
20240620061719 79 158 4.0 5.0 0.00 0.00 0.00 80 1024.4
20240620061629 79 145 2.0 5.0 0.00 0.00 0.00 80 1024.4
20240620061219 79 163 3.0 5.0 0.00 0.00 0.00 80 1024.4
20240620061129 79 125 2.0 5.0 0.00 0.00 0.00 80 1024.4
20240620060719 79 121 2.0 4.0 0.00 0.00 0.00 79 1024.4
20240620060629 79 224 1.0 4.0 0.00 0.00 0.00 79 1024.4
20240620060219 80 129 1.0 4.0 0.00 0.00 0.00 79 1024.3
20240620060129 80 190 2.0 4.0 0.00 0.00 0.00 79 1024.4
20240620055719 80 153 1.0 4.0 0.00 0.00 0.00 79 1024.4
20240620055629 80 170 1.0 4.0 0.00 0.00 0.00 79 1024.4
20240620055219 80 215 2.0 5.0 0.00 0.00 0.00 79 1024.3
20240620055129 80 188 3.0 5.0 0.00 0.00 0.00 79 1024.3
20240620054719 80 148 2.0 5.0 0.00 0.00 0.00 78 1024.4
20240620054629 80 129 3.0 5.0 0.00 0.00 0.00 78 1024.4
20240620054219 80 96 3.0 5.0 0.00 0.00 0.00 78 1024.3
20240620054130 80 143 2.0 5.0 0.00 0.00 0.00 78 1024.3
20240620053758 80 96 1.0 3.0 0.00 0.00 0.00 78 1024.3
20240620053718 80 96 1.0 3.0 0.00 0.00 0.00 78 1024.3
20240620053630 80 135 2.0 3.0 0.00 0.00 0.00 78 1024.3
20240620053218 80 233 1.0 7.0 0.00 0.00 0.00 78 1024.3
20240620053130 80 134 1.0 7.0 0.00 0.00 0.00 78 1024.3
20240620052718 80 139 2.0 7.0 0.00 0.00 0.00 78 1024.2
20240620052630 80 142 3.0 7.0 0.00 0.00 0.00 78 1024.2
20240620052218 80 167 1.0 6.0 0.00 0.00 0.00 78 1024.2
20240620052130 80 135 2.0 6.0 0.00 0.00 0.00 78 1024.2
20240620051718 80 138 3.0 4.0 0.00 0.00 0.00 78 1024.2
20240620051630 80 136 3.0 4.0 0.00 0.00 0.00 78 1024.2
20240620051218 80 150 1.0 4.0 0.00 0.00 0.00 78 1024.2
20240620051130 80 166 1.0 4.0 0.00 0.00 0.00 78 1024.2
20240620050718 80 231 2.0 6.0 0.00 0.00 0.00 77 1024.3
20240620050630 80 142 1.0 6.0 0.00 0.00 0.00 77 1024.3
20240620050218 80 131 1.0 6.0 0.00 0.00 0.00 77 1024.2
20240620050130 80 163 2.0 6.0 0.00 0.00 0.00 77 1024.2
20240620045718 81 141 2.0 5.0 0.00 0.00 0.00 78 1024.2
20240620045630 81 150 3.0 5.0 0.00 0.00 0.00 78 1024.2
20240620045218 80 136 3.0 6.0 0.00 0.00 0.00 78 1024.2
20240620045130 80 129 1.0 6.0 0.00 0.00 0.00 78 1024.2
20240620044718 80 166 3.0 6.0 0.00 0.00 0.00 78 1024.2
20240620044630 80 152 3.0 6.0 0.00 0.00 0.00 78 1024.2
20240620044218 81 181 3.0 3.0 0.00 0.00 0.00 78 1024.2
20240620044130 81 152 2.0 3.0 0.00 0.00 0.00 77 1024.2
20240620043718 81 156 2.0 4.0 0.00 0.00 0.00 77 1024.2
20240620043630 81 179 1.0 5.0 0.00 0.00 0.00 77 1024.1
20240620043218 81 155 2.0 5.0 0.00 0.00 0.00 77 1024.2
20240620043130 81 150 2.0 5.0 0.00 0.00 0.00 77 1024.1
20240620042718 81 121 3.0 5.0 0.00 0.00 0.00 77 1024.1
20240620042630 81 162 2.0 5.0 0.00 0.00 0.00 77 1024.1
20240620042218 81 150 1.0 5.0 0.00 0.00 0.00 77 1024.2
20240620042130 81 103 1.0 5.0 0.00 0.00 0.00 77 1024.2
20240620041718 81 158 2.0 5.0 0.00 0.00 0.00 77 1024.2
20240620041630 81 146 2.0 5.0 0.00 0.00 0.00 77 1024.2
20240620041218 81 177 1.0 7.0 0.00 0.00 0.00 77 1024.1
20240620041130 81 183 2.0 7.0 0.00 0.00 0.00 77 1024.1
20240620040718 81 145 3.0 7.0 0.00 0.00 0.00 77 1024.1
20240620040630 81 146 3.0 7.0 0.00 0.00 0.00 77 1024.1
20240620040218 81 120 1.0 6.0 0.00 0.00 0.00 77 1024.1
20240620040130 81 188 3.0 6.0 0.00 0.00 0.00 77 1024.1
20240620035721 82 76 4.0 7.0 0.00 0.00 0.00 76 1024.1
20240620035630 81 163 5.0 7.0 0.00 0.00 0.00 76 1024.1
20240620035218 81 145 3.0 7.0 0.00 0.00 0.00 76 1024.2
20240620035130 82 146 3.0 7.0 0.00 0.00 0.00 76 1024.2
20240620034718 82 158 3.0 7.0 0.00 0.00 0.00 76 1024.2
20240620034630 82 172 0.0 7.0 0.00 0.00 0.00 76 1024.2
20240620034218 82 190 3.0 6.0 0.00 0.00 0.00 76 1024.2
20240620034130 82 210 3.0 6.0 0.00 0.00 0.00 76 1024.2
20240620033718 82 165 2.0 6.0 0.00 0.00 0.00 76 1024.2
20240620033630 82 139 2.0 6.0 0.00 0.00 0.00 76 1024.1
20240620033218 82 153 3.0 6.0 0.00 0.00 0.00 76 1024.1
20240620033129 82 158 4.0 6.0 0.00 0.00 0.00 76 1024.1
20240620032719 82 148 3.0 8.0 0.00 0.00 0.00 76 1024.2
20240620032629 82 142 3.0 8.0 0.00 0.00 0.00 76 1024.2
20240620032219 82 149 4.0 8.0 0.00 0.00 0.00 76 1024.1
20240620032129 82 134 3.0 8.0 0.00 0.00 0.00 76 1024.1
20240620031719 82 170 3.0 5.0 0.00 0.00 0.00 75 1024.2
20240620031629 82 158 2.0 5.0 0.00 0.00 0.00 75 1024.2
20240620031252 82 173 2.0 7.0 0.00 0.00 0.00 75 1024.2
20240620031219 82 173 2.0 7.0 0.00 0.00 0.00 75 1024.2
20240620031129 82 128 2.0 7.0 0.00 0.00 0.00 75 1024.2
20240620030719 82 103 1.0 7.0 0.00 0.00 0.00 75 1024.1
20240620030629 83 150 2.0 9.0 0.00 0.00 0.00 75 1024.1
20240620030254 83 173 3.0 9.0 0.00 0.00 0.00 74 1024.1
20240620030219 83 173 3.0 9.0 0.00 0.00 0.00 74 1024.1
20240620030129 83 146 3.0 9.0 0.00 0.00 0.00 74 1024.0
20240620025719 83 145 5.0 9.0 0.00 0.00 0.00 74 1024.0
20240620025629 83 197 3.0 8.0 0.00 0.00 0.00 74 1024.0
20240620025219 83 115 3.0 10.0 0.00 0.00 0.00 74 1024.1
20240620025129 83 215 4.0 10.0 0.00 0.00 0.00 74 1024.0
20240620024719 83 215 4.0 10.0 0.00 0.00 0.00 74 1024.0
20240620024629 83 166 5.0 10.0 0.00 0.00 0.00 74 1023.9
20240620024219 83 138 3.0 9.0 0.00 0.00 0.00 74 1023.9
20240620024129 83 160 3.0 9.0 0.00 0.00 0.00 74 1023.9
20240620023719 83 205 2.0 9.0 0.00 0.00 0.00 74 1023.9
20240620023629 83 193 5.0 9.0 0.00 0.00 0.00 74 1023.9
20240620023219 83 148 3.0 8.0 0.00 0.00 0.00 74 1023.8
20240620023129 83 142 6.0 8.0 0.00 0.00 0.00 74 1023.8
20240620022719 83 153 3.0 7.0 0.00 0.00 0.00 73 1023.8
20240620022629 83 129 3.0 7.0 0.00 0.00 0.00 73 1023.8
20240620022219 83 115 5.0 7.0 0.00 0.00 0.00 73 1023.8
20240620022129 84 167 3.0 7.0 0.00 0.00 0.00 73 1023.8
20240620021719 83 181 3.0 6.0 0.00 0.00 0.00 72 1023.7
20240620021629 83 170 2.0 6.0 0.00 0.00 0.00 72 1023.7
20240620021253 84 155 2.0 6.0 0.00 0.00 0.00 71 1023.7
20240620021219 84 155 2.0 6.0 0.00 0.00 0.00 71 1023.7
20240620021129 84 153 2.0 6.0 0.00 0.00 0.00 71 1023.7
20240620020719 84 117 1.0 4.0 0.00 0.00 0.00 72 1023.6
20240620020629 84 217 2.0 4.0 0.00 0.00 0.00 72 1023.6
20240620020251 84 143 2.0 5.0 0.00 0.00 0.00 72 1023.6
20240620020219 84 143 2.0 5.0 0.00 0.00 0.00 72 1023.6
20240620020129 84 203 1.0 5.0 0.00 0.00 0.00 72 1023.5
20240620015815 84 136 1.0 5.0 0.00 0.00 0.00 72 1023.4
20240620015719 84 136 1.0 5.0 0.00 0.00 0.00 72 1023.4
20240620015629 84 158 3.0 5.0 0.00 0.00 0.00 72 1023.4
20240620015219 84 160 2.0 4.0 0.00 0.00 0.00 72 1023.4
20240620015129 84 159 1.0 4.0 0.00 0.00 0.00 72 1023.5
20240620014719 84 155 2.0 7.0 0.00 0.00 0.00 72 1023.4
20240620014629 84 134 2.0 7.0 0.00 0.00 0.00 72 1023.4
20240620014253 84 148 2.0 7.0 0.00 0.00 0.00 72 1023.4
20240620014219 84 148 2.0 7.0 0.00 0.00 0.00 72 1023.4
20240620014129 84 150 3.0 7.0 0.00 0.00 0.00 72 1023.3
20240620013808 84 146 2.0 6.0 0.00 0.00 0.00 72 1023.3
20240620013719 84 146 2.0 6.0 0.00 0.00 0.00 72 1023.3
20240620013629 84 181 2.0 6.0 0.00 0.00 0.00 72 1023.3
20240620013219 84 129 3.0 5.0 0.00 0.00 0.00 72 1023.2
20240620013129 84 212 1.0 5.0 0.00 0.00 0.00 72 1023.2
20240620012719 84 152 3.0 5.0 0.00 0.00 0.00 72 1023.1
20240620012629 84 200 2.0 5.0 0.00 0.00 0.00 72 1023.2
20240620012219 84 193 0.0 4.0 0.00 0.00 0.00 71 1023.2
20240620012129 84 193 1.0 4.0 0.00 0.00 0.00 71 1023.1
20240620011719 85 136 1.0 6.0 0.00 0.00 0.00 71 1023.1
20240620011629 85 134 2.0 6.0 0.00 0.00 0.00 71 1023.1
20240620011219 85 152 2.0 6.0 0.00 0.00 0.00 71 1023.1
20240620011129 85 179 1.0 6.0 0.00 0.00 0.00 71 1023.1
20240620010719 85 158 2.0 5.0 0.00 0.00 0.00 71 1023.1
20240620010629 85 181 3.0 5.0 0.00 0.00 0.00 71 1023.1
20240620010219 85 187 0.0 7.0 0.00 0.00 0.00 70 1023.0
20240620010129 85 114 0.0 7.0 0.00 0.00 0.00 70 1023.0
20240620005800 85 145 2.0 7.0 0.00 0.00 0.00 70 1022.9
20240620005719 85 145 2.0 7.0 0.00 0.00 0.00 70 1022.9
20240620005629 85 107 3.0 7.0 0.00 0.00 0.00 70 1022.9
20240620005219 85 169 2.0 9.0 0.00 0.00 0.00 70 1022.9
20240620005129 85 158 4.0 9.0 0.00 0.00 0.00 70 1022.9
20240620004719 85 121 1.0 9.0 0.00 0.00 0.00 70 1022.8
20240620004629 85 145 4.0 9.0 0.00 0.00 0.00 70 1022.8
20240620004219 85 145 6.0 11.0 0.00 0.00 0.00 69 1022.7
20240620004129 86 169 4.0 11.0 0.00 0.00 0.00 69 1022.7
20240620003719 86 174 5.0 11.0 0.00 0.00 0.00 69 1022.6
20240620003629 86 146 4.0 11.0 0.00 0.00 0.00 69 1022.6
20240620003219 86 172 5.0 10.0 0.00 0.00 0.00 69 1022.7
20240620003129 86 131 4.0 10.0 0.00 0.00 0.00 68 1022.6
20240620002719 86 142 5.0 10.0 0.00 0.00 0.00 68 1022.6
20240620002629 86 359 6.0 10.0 0.00 0.00 0.00 68 1022.6
20240620002219 86 158 7.0 10.0 0.00 0.00 0.00 68 1022.6
20240620002129 86 166 4.0 9.0 0.00 0.00 0.00 68 1022.6
20240620001719 86 179 3.0 10.0 0.00 0.00 0.00 68 1022.5
20240620001629 86 158 4.0 10.0 0.00 0.00 0.00 68 1022.5
20240620001219 86 167 5.0 10.0 0.00 0.00 0.00 67 1022.5
20240620001129 86 128 6.0 10.0 0.00 0.00 0.00 67 1022.5
20240620000719 86 134 6.0 8.0 0.00 0.00 0.00 67 1022.5
20240620000629 86 152 4.0 9.0 0.00 0.00 0.00 66 1022.5
20240620000219 87 138 6.0 10.0 0.00 0.00 0.00 66 1022.5
20240620000129 87 152 4.0 10.0 0.00 0.00 0.00 65 1022.5
20240619235719 87 165 5.0 10.0 0.00 0.00 0.00 65 1022.5
20240619235629 87 166 6.0 10.0 0.00 0.00 0.00 65 1022.5
20240619235219 87 146 5.0 8.0 0.00 0.00 0.00 64 1022.5
20240619235129 87 201 3.0 8.0 0.00 0.00 0.00 64 1022.5
20240619234719 87 186 4.0 8.0 0.00 0.00 0.00 64 1022.6
20240619234629 87 134 3.0 8.0 0.00 0.00 0.00 64 1022.6
20240619234219 87 170 4.0 10.0 0.00 0.00 0.00 64 1022.5
20240619234129 87 131 5.0 10.0 0.00 0.00 0.00 64 1022.5
20240619233719 87 153 5.0 10.0 0.00 0.00 0.00 64 1022.5
20240619233629 87 143 6.0 10.0 0.00 0.00 0.00 64 1022.5
20240619233219 87 165 1.0 7.0 0.00 0.00 0.00 64 1022.5
20240619233129 87 105 1.0 7.0 0.00 0.00 0.00 63 1022.5
20240619232719 87 200 4.0 8.0 0.00 0.00 0.00 63 1022.6
20240619232629 87 181 5.0 8.0 0.00 0.00 0.00 63 1022.6
20240619232219 87 163 4.0 8.0 0.00 0.00 0.00 62 1022.5
20240619232129 87 163 4.0 8.0 0.00 0.00 0.00 62 1022.5
20240619231719 87 83 3.0 10.0 0.00 0.00 0.00 62 1022.5
20240619231629 87 195 3.0 10.0 0.00 0.00 0.00 63 1022.6
20240619231219 87 145 4.0 10.0 0.00 0.00 0.00 62 1022.6
20240619231130 87 128 3.0 10.0 0.00 0.00 0.00 62 1022.6
20240619230718 87 232 3.0 8.0 0.00 0.00 0.00 63 1022.5
20240619230629 87 155 6.0 8.0 0.00 0.00 0.00 63 1022.5
20240619230219 87 159 4.0 7.0 0.00 0.00 0.00 63 1022.5
20240619230129 87 160 2.0 7.0 0.00 0.00 0.00 63 1022.5
20240619225719 87 150 2.0 8.0 0.00 0.00 0.00 63 1022.5
20240619225629 88 152 3.0 8.0 0.00 0.00 0.00 63 1022.5
20240619225219 88 107 2.0 8.0 0.00 0.00 0.00 62 1022.5
20240619225129 88 136 4.0 8.0 0.00 0.00 0.00 63 1022.5
20240619224719 88 132 6.0 8.0 0.00 0.00 0.00 63 1022.6
20240619224629 88 159 4.0 8.0 0.00 0.00 0.00 63 1022.6
20240619224219 88 162 5.0 8.0 0.00 0.00 0.00 62 1022.7
20240619224129 88 108 4.0 8.0 0.00 0.00 0.00 63 1022.7
20240619223719 88 129 4.0 8.0 0.00 0.00 0.00 62 1022.7
20240619223629 88 197 6.0 8.0 0.00 0.00 0.00 63 1022.7
20240619223219 88 136 4.0 8.0 0.00 0.00 0.00 63 1022.7
20240619223129 88 190 4.0 8.0 0.00 0.00 0.00 63 1022.7
20240619222719 88 143 5.0 8.0 0.00 0.00 0.00 62 1022.6
20240619222629 88 159 5.0 8.0 0.00 0.00 0.00 62 1022.6
20240619222219 88 210 5.0 8.0 0.00 0.00 0.00 61 1022.7
20240619222129 88 127 3.0 8.0 0.00 0.00 0.00 61 1022.7
20240619221719 88 172 3.0 8.0 0.00 0.00 0.00 60 1022.7
20240619221629 88 152 5.0 8.0 0.00 0.00 0.00 60 1022.7
20240619221219 88 136 3.0 8.0 0.00 0.00 0.00 58 1022.8
20240619221129 88 115 4.0 8.0 0.00 0.00 0.00 58 1022.8
20240619220719 88 128 3.0 8.0 0.00 0.00 0.00 57 1022.9
20240619220629 88 170 4.0 8.0 0.00 0.00 0.00 56 1022.8
20240619220219 88 165 2.0 7.0 0.00 0.00 0.00 56 1022.8
20240619220129 88 338 2.0 7.0 0.00 0.00 0.00 56 1022.8
20240619215719 88 149 2.0 7.0 0.00 0.00 0.00 56 1022.7
20240619215629 89 162 3.0 6.0 0.00 0.00 0.00 55 1022.6
20240619215219 89 160 1.0 6.0 0.00 0.00 0.00 55 1022.7
20240619215129 89 253 0.0 6.0 0.00 0.00 0.00 55 1022.7
20240619214719 89 136 4.0 7.0 0.00 0.00 0.00 54 1022.7
20240619214629 89 104 1.0 7.0 0.00 0.00 0.00 54 1022.6
20240619214219 89 217 3.0 8.0 0.00 0.00 0.00 54 1022.6
20240619214129 89 139 3.0 8.0 0.00 0.00 0.00 54 1022.6
20240619213719 89 76 2.0 8.0 0.00 0.00 0.00 53 1022.6
20240619213629 89 134 4.0 8.0 0.00 0.00 0.00 53 1022.6
20240619213219 89 127 5.0 8.0 0.00 0.00 0.00 53 1022.6
20240619213129 89 150 2.0 7.0 0.00 0.00 0.00 54 1022.7
20240619212719 89 118 1.0 9.0 0.00 0.00 0.00 53 1022.7
20240619212629 89 264 2.0 9.0 0.00 0.00 0.00 53 1022.7
20240619212219 89 152 4.0 9.0 0.00 0.00 0.00 53 1022.7
20240619212129 89 148 4.0 9.0 0.00 0.00 0.00 53 1022.7
20240619211719 89 167 3.0 9.0 0.00 0.00 0.00 52 1022.7
20240619211629 89 232 4.0 9.0 0.00 0.00 0.00 52 1022.8
20240619211219 90 86 1.0 9.0 0.00 0.00 0.00 52 1022.9
20240619211129 90 188 1.0 9.0 0.00 0.00 0.00 52 1022.9
20240619210719 90 127 2.0 8.0 0.00 0.00 0.00 54 1022.9
20240619210629 90 159 0.0 8.0 0.00 0.00 0.00 55 1022.9
20240619210219 90 208 2.0 8.0 0.00 0.00 0.00 55 1023.0
20240619210129 90 113 0.0 8.0 0.00 0.00 0.00 54 1023.0
20240619205719 89 208 3.0 5.0 0.00 0.00 0.00 54 1023.0
20240619205629 90 207 3.0 6.0 0.00 0.00 0.00 55 1023.0
20240619205219 90 163 1.0 8.0 0.00 0.00 0.00 55 1022.9
20240619205129 90 156 2.0 8.0 0.00 0.00 0.00 56 1022.9
20240619204719 90 205 3.0 8.0 0.00 0.00 0.00 54 1022.9
20240619204629 90 150 5.0 8.0 0.00 0.00 0.00 53 1022.9
20240619204219 90 79 0.0 8.0 0.00 0.00 0.00 56 1022.9
20240619204129 90 93 2.0 8.0 0.00 0.00 0.00 56 1022.9
20240619203719 90 73 1.0 10.0 0.00 0.00 0.00 57 1022.7
20240619203629 90 183 1.0 10.0 0.00 0.00 0.00 57 1022.8
20240619203219 90 167 5.0 10.0 0.00 0.00 0.00 57 1022.8
20240619203129 90 208 5.0 10.0 0.00 0.00 0.00 57 1022.8
20240619202719 90 113 3.0 10.0 0.00 0.00 0.00 57 1022.8
20240619202629 90 160 4.0 10.0 0.00 0.00 0.00 56 1022.8
20240619202219 90 136 2.0 10.0 0.00 0.00 0.00 57 1022.9
20240619202129 90 156 6.0 10.0 0.00 0.00 0.00 56 1022.9
20240619201719 90 153 2.0 10.0 0.00 0.00 0.00 58 1022.9
20240619201629 90 163 2.0 10.0 0.00 0.00 0.00 56 1022.9
20240619201219 90 152 5.0 10.0 0.00 0.00 0.00 56 1022.9
20240619201129 90 138 6.0 10.0 0.00 0.00 0.00 57 1023.0
20240619200719 89 179 0.0 9.0 0.00 0.00 0.00 56 1023.0
20240619200629 89 179 2.0 9.0 0.00 0.00 0.00 56 1023.0
20240619200219 89 145 5.0 9.0 0.00 0.00 0.00 57 1023.0
20240619200129 89 278 3.0 8.0 0.00 0.00 0.00 56 1023.0
20240619195719 89 110 3.0 9.0 0.00 0.00 0.00 57 1023.0
20240619195629 89 150 3.0 9.0 0.00 0.00 0.00 56 1023.0
20240619195219 89 143 0.0 10.0 0.00 0.00 0.00 57 1022.9
20240619195129 89 143 2.0 10.0 0.00 0.00 0.00 56 1022.9
20240619194719 90 111 4.0 10.0 0.00 0.00 0.00 57 1023.1
20240619194630 90 177 5.0 10.0 0.00 0.00 0.00 56 1023.1
20240619194218 90 236 3.0 9.0 0.00 0.00 0.00 53 1023.1
20240619194129 90 211 4.0 9.0 0.00 0.00 0.00 54 1023.0
20240619193719 90 156 6.0 9.0 0.00 0.00 0.00 54 1023.0
20240619193629 90 191 2.0 8.0 0.00 0.00 0.00 55 1023.0
20240619193219 90 163 5.0 9.0 0.00 0.00 0.00 52 1023.1
20240619193129 90 136 5.0 9.0 0.00 0.00 0.00 52 1023.1
20240619192719 90 217 3.0 9.0 0.00 0.00 0.00 53 1023.1
20240619192629 90 155 3.0 9.0 0.00 0.00 0.00 54 1023.1
20240619192219 90 134 4.0 9.0 0.00 0.00 0.00 53 1023.2
20240619192129 90 158 4.0 9.0 0.00 0.00 0.00 54 1023.2
20240619191719 90 165 3.0 9.0 0.00 0.00 0.00 54 1023.1
20240619191629 90 149 5.0 9.0 0.00 0.00 0.00 55 1023.1
20240619191219 89 118 3.0 9.0 0.00 0.00 0.00 55 1023.2
20240619191129 89 138 6.0 10.0 0.00 0.00 0.00 54 1023.1
20240619190719 89 165 4.0 10.0 0.00 0.00 0.00 55 1023.0
20240619190629 89 122 4.0 10.0 0.00 0.00 0.00 55 1023.1
20240619190219 89 149 7.0 10.0 0.00 0.00 0.00 55 1023.0
20240619190129 90 167 6.0 10.0 0.00 0.00 0.00 55 1023.0
20240619185719 90 174 6.0 8.0 0.00 0.00 0.00 55 1023.1
20240619185629 90 150 2.0 7.0 0.00 0.00 0.00 57 1023.1
20240619185219 90 173 1.0 6.0 0.00 0.00 0.00 55 1023.1
20240619185129 90 132 4.0 6.0 0.00 0.00 0.00 54 1023.1
20240619184719 90 59 2.0 10.0 0.00 0.00 0.00 55 1023.2
20240619184629 90 139 2.0 10.0 0.00 0.00 0.00 55 1023.2
20240619184219 90 186 2.0 10.0 0.00 0.00 0.00 54 1023.2
20240619184129 90 155 2.0 10.0 0.00 0.00 0.00 54 1023.2
20240619183719 90 149 2.0 10.0 0.00 0.00 0.00 54 1023.2
20240619183629 90 136 3.0 10.0 0.00 0.00 0.00 54 1023.2
20240619183219 90 173 1.0 8.0 0.00 0.00 0.00 54 1023.2
20240619183129 90 73 2.0 8.0 0.00 0.00 0.00 53 1023.3
20240619182719 91 136 0.0 6.0 0.00 0.00 0.00 53 1023.4
20240619182629 91 136 2.0 6.0 0.00 0.00 0.00 53 1023.4
20240619182219 91 239 0.0 6.0 0.00 0.00 0.00 52 1023.3
20240619182129 91 260 3.0 6.0 0.00 0.00 0.00 52 1023.3
20240619181719 91 226 2.0 6.0 0.00 0.00 0.00 53 1023.3
20240619181629 91 176 1.0 6.0 0.00 0.00 0.00 53 1023.3
20240619181219 91 236 1.0 6.0 0.00 0.00 0.00 52 1023.3
20240619181129 91 195 2.0 6.0 0.00 0.00 0.00 52 1023.2
20240619180719 91 269 0.0 6.0 0.00 0.00 0.00 52 1023.3
20240619180629 91 269 2.0 6.0 0.00 0.00 0.00 51 1023.3
20240619180219 91 176 2.0 7.0 0.00 0.00 0.00 53 1023.4
20240619180129 91 228 3.0 7.0 0.00 0.00 0.00 52 1023.4
20240619175719 91 162 1.0 7.0 0.00 0.00 0.00 53 1023.5
20240619175629 91 153 3.0 8.0 0.00 0.00 0.00 53 1023.4
20240619175219 91 143 2.0 8.0 0.00 0.00 0.00 52 1023.5
20240619175129 91 224 1.0 8.0 0.00 0.00 0.00 51 1023.5
20240619174719 91 250 5.0 8.0 0.00 0.00 0.00 51 1023.5
20240619174629 91 217 3.0 7.0 0.00 0.00 0.00 54 1023.4
20240619174219 91 122 2.0 7.0 0.00 0.00 0.00 52 1023.5
20240619174129 91 245 5.0 7.0 0.00 0.00 0.00 52 1023.5
20240619173719 91 159 2.0 7.0 0.00 0.00 0.00 53 1023.6
20240619173629 91 225 1.0 3.0 0.00 0.00 0.00 53 1023.6
20240619173219 91 37 0.0 3.0 0.00 0.00 0.00 55 1023.6
20240619173129 91 37 1.0 4.0 0.00 0.00 0.00 55 1023.7
20240619172719 91 129 2.0 6.0 0.00 0.00 0.00 55 1023.7
20240619172629 91 257 1.0 6.0 0.00 0.00 0.00 55 1023.7
20240619172219 91 60 2.0 6.0 0.00 0.00 0.00 54 1023.8
20240619172129 91 259 1.0 6.0 0.00 0.00 0.00 54 1023.8
20240619171719 91 276 2.0 5.0 0.00 0.00 0.00 53 1023.7
20240619171629 91 217 2.0 5.0 0.00 0.00 0.00 52 1023.7
20240619171219 92 203 1.0 5.0 0.00 0.00 0.00 53 1023.7
20240619171129 92 153 1.0 5.0 0.00 0.00 0.00 54 1023.6
20240619170719 92 62 1.0 7.0 0.00 0.00 0.00 54 1023.7
20240619170629 92 6 2.0 7.0 0.00 0.00 0.00 53 1023.7
20240619170219 91 290 1.0 7.0 0.00 0.00 0.00 52 1023.7
20240619170129 91 283 3.0 7.0 0.00 0.00 0.00 52 1023.7
20240619165719 91 203 0.0 6.0 0.00 0.00 0.00 54 1023.7
20240619165629 91 243 3.0 6.0 0.00 0.00 0.00 55 1023.7
20240619165219 91 23 1.0 5.0 0.00 0.00 0.00 58 1023.6
20240619165129 91 30 0.0 5.0 0.00 0.00 0.00 59 1023.6
20240619164719 90 288 3.0 8.0 0.00 0.00 0.00 54 1023.8
20240619164629 90 162 2.0 8.0 0.00 0.00 0.00 53 1023.8
20240619164219 90 260 1.0 8.0 0.00 0.00 0.00 56 1023.8
20240619164129 90 158 1.0 8.0 0.00 0.00 0.00 56 1023.8
20240619163719 90 167 3.0 6.0 0.00 0.00 0.00 57 1023.8
20240619163629 90 155 1.0 6.0 0.00 0.00 0.00 57 1023.9
20240619163219 89 172 0.0 7.0 0.00 0.00 0.00 57 1023.8
20240619163129 89 197 0.0 7.0 0.00 0.00 0.00 58 1023.8
20240619162719 89 135 3.0 7.0 0.00 0.00 0.00 58 1023.8
20240619162629 89 153 3.0 7.0 0.00 0.00 0.00 59 1023.8
20240619162219 89 136 1.0 7.0 0.00 0.00 0.00 58 1023.8